COSMOS 1375 DEB, 17090

Orbit data source: Space-Track

COSMOS 1375 DEB, 17090 is space debris in LEO originally from a launch on Sun, 06 Jun 1982 UTC launched from the Plesetsk Missile And Space Complex (PKMTR). Debris objects in space refer to the collection of defunct objects orbiting the Earth. Examples of debris include non-operational satellites, rocket bodies, and fragments generated from explosions, collisions, or faulty payload assembly.

Loading next visibility...
Identifier
17090, 1982-055AC
Orbit
LEO
Country
Flag of CISCIS
Related business
Manufacturer
Unknown
Mission
Spacecraft
Bus & Motor
Unknown
Mass
Unknown
Launch date (UTC)
1982-06-06 (44 years ago)
Launch vehicle
Unknown
Launch site
Plesetsk Missile And Space Complex (PKMTR)
Object type
Payload
Rocket body
Debris
Shape & HBR
Unknown shape, 0.2 m
Radar Cross Section
Medium (>0.1 m² and <1 m²)

Expand to show TLE details & history
Last TLE update: 2 days ago

TLE from 2 days ago
0 COSMOS 1375 DEB
1 17090U 82055AC  26171.36663154 -.00000052  00000-0  26943-4 0  9994
2 17090  65.8340 211.6620 0046719   9.5099  77.3855 13.84038044 52076
Epoch: 2026-06-20T08:47Z
TLE epoch observation values (Epoch: 2026-06-20T08:47:56.965Z)
Latitude
65.81658°
Longitude
-105.19965°
Altitude
952.734 km
Speed
7.386 km/s
True Right ascension
19h 41m 28s
True Declination
65° 41' 28"
Sunlit
Object was in daylight at epoch
Visualization orbit readout
Latitude
Unknown
Longitude
Unknown
Altitude
Unknown
Speed
Unknown
Apparent Right ascension
Unknown
Apparent Declination
Unknown
Sunlit
N/A
Visualization observer readout
Local Sidereal Time
00:39:49
Azimuth
Unknown
Elevation
Unknown
Doppler factor
Unknown
Orbital elements
Apogee altitude
982.337 km
Perigee altitude
913.882 km
Semi-major axis
7,326.247 km
Eccentricity
0.00467
Inclination
65.834°
RAAN
211.662°
Arg. of periapsis
9.5099°
True anomaly
77.9086°
Mean anomaly
77.3855°
Eccentric anomaly
77.64698°
Mean motion
3.46115 °/min
Orbital period
104.01 mins
BSTAR
0.000026943
Loading maneuver chart data...
Computing Atmospheric mass density...
Loading historical data...
Loading historical data...
Loading historical data...
Loading historical data...
Loading historical data...
Loading historical data...
Loading historical data...

Documentation

Showing up to 5 results
|